Location: Mainz-Finthen
(49.9906°N, 8.1713°E)
Time: 17:28:17
(UTC+00:00)

NO-84 - Visible Passes

Search period start: 03 December 2021 00:00
Search period end: 13 December 2021 00:00
Orbit: 254 x 295 km, 55.0° (Epoch: 30 November)

Date Brightness Start Highest point End Pass type
(mag) Time Alt. Az. Time Alt. Az. Time Alt. Az.
06 Dec ? 16:34:03 10° S 16:35:32 15° SE 16:36:22 13° ESE visible
06 Dec ? 18:06:04 10° WSW 18:06:09 11° WSW 18:06:09 11° WSW visible
07 Dec ? 16:29:25 10° SSW 16:31:21 23° SE 16:32:34 15° E visible
07 Dec ? 18:02:02 10° W 18:02:18 12° W 18:02:18 12° W visible
08 Dec ? 16:24:25 10° SSW 16:26:35 35° SE 16:28:07 16° E visible
08 Dec ? 17:57:27 10° W 17:57:49 13° W 17:57:49 13° W visible
09 Dec ? 16:18:58 10° SW 16:21:14 55° SSE 16:23:02 14° ENE visible
09 Dec ? 17:52:16 10° WNW 17:52:42 13° WNW 17:52:42 13° WNW visible
10 Dec ? 16:13:01 10° WSW 16:15:19 85° SE 16:17:20 12° ENE visible
10 Dec ? 17:46:29 10° WNW 17:46:58 14° WNW 17:46:58 14° WNW visible
11 Dec ? 16:06:31 10° WSW 16:08:47 65° NNW 16:11:02 10° ENE visible
11 Dec ? 17:40:04 10° WNW 17:40:37 14° NW 17:40:37 14° NW visible
12 Dec ? 15:59:28 10° W 16:01:40 47° NNW 16:03:54 10° NE visible
12 Dec ? 17:33:01 10° WNW 17:33:40 15° NW 17:33:40 15° NW visible
